Weather History for KTEW - December, 2012

Change the Weather History Date:

Monday, December 31, 2012

  Actual Average (KLAN) Record (KLAN)
Temperature  
Mean Temperature 28 °F 25 °F  
Max Temperature 34 °F 31 °F 70 °F (1875)
Min Temperature 22 °F 18 °F -15 °F (1976)
Degree Days  
Heating Degree Days 37 40  
Month to date heating degree days 1137  
Since 1 July heating degree days 2552  
Cooling Degree Days 0 0  
Month to date cooling degree days 0  
Year to date cooling degree days 625  
Moisture  
Dew Point 23 °F    
Average Humidity 75    
Maximum Humidity 84    
Minimum Humidity 67    
Precipitation  
Precipitation 0.00 in 0.06 in 0.98 in (1978)
Month to date precipitation 1.87  
Year to date precipitation 31.77  
Snow  
Snow 0.00 in 0.50 in 10.90 in (1927)
Month to date snowfall 13.0  
Since 1 July snowfall 16.8  
Snow Depth -    
Sea Level Pressure  
Sea Level Pressure 29.98 in    
Wind  
Wind Speed 6 mph (WSW)    
Max Wind Speed 15 mph    
Max Gust Speed 22 mph    
Visibility 10 miles    
Events      
T = Trace of Precipitation, MM = Missing Value Source: NWS Daily Summary

Daily Weather History Graph

Daily Weather History Graph

Search for Another Location

Airport or City:

Trip Planner

Search our weather history database for the weather conditions in past years. The results will help you decide how hot, cold, wet, or windy it might be!

Date:

Astronomy

Dec. 31, 2012 Rise Set
Actual Time 8:07 AM EST 5:14 PM EST
Civil Twilight 7:35 AM EST 5:46 PM EST
Nautical Twilight 7:00 AM EST 6:22 PM EST
Astronomical Twilight 6:25 AM EST 6:56 PM EST
Moon 8:49 PM EST (12/31) 9:44 AM EST (12/31)
Length of Visible Light 10h 10m
Length of Day
9h 07m
Waning Gibbous, 90% of the Moon is Illuminated
Dec 31
Waning Gibbous
Jan 4
Last Quarter
Jan 11
New
Jan 18
First Quarter
Jan 26
Full

Hourly Weather History & Observations

Time (EST) Temp. Windchill Dew Point Humidity Pressure Visibility Wind Dir Wind Speed Gust Speed Precip Events Conditions
12:14 AM 22.1 °F 17.4 °F 18.0 °F 84% 30.13 in 7.0 mi South 3.5 mph - N/A   Scattered Clouds
12:35 AM 23.0 °F 18.4 °F 18.3 °F 82% 30.12 in 7.0 mi SSW 3.5 mph - N/A   Scattered Clouds
12:54 AM 23.0 °F 18.4 °F 18.3 °F 82% 30.11 in 7.0 mi SSW 3.5 mph - N/A   Clear
1:14 AM 23.7 °F 19.3 °F 18.5 °F 80% 30.10 in 10.0 mi SSW 3.5 mph - N/A   Clear
1:35 AM 23.4 °F 18.9 °F 18.1 °F 80% 30.10 in 10.0 mi SSW 3.5 mph - N/A   Clear
1:54 AM 23.0 °F 17.0 °F 18.0 °F 81% 30.09 in 10.0 mi South 4.6 mph - N/A   Clear
2:14 AM 22.5 °F - 17.6 °F 82% 30.08 in 10.0 mi Calm Calm - N/A   Clear
2:35 AM 23.0 °F - 18.0 °F 81% 30.07 in 10.0 mi Calm Calm - N/A   Clear
2:54 AM 23.9 °F - 18.1 °F 79% 30.06 in 10.0 mi Calm Calm - N/A   Clear
3:14 AM 24.4 °F 18.6 °F 18.3 °F 78% 30.04 in 10.0 mi South 4.6 mph - N/A   Clear
3:35 AM 24.8 °F 19.1 °F 18.3 °F 76% 30.05 in 10.0 mi SSW 4.6 mph - N/A   Clear
3:54 AM 24.6 °F 20.3 °F 18.3 °F 77% 30.04 in 10.0 mi South 3.5 mph - N/A   Clear
4:14 AM 25.3 °F - 18.5 °F 75% 30.02 in 10.0 mi Calm Calm - N/A   Clear
4:35 AM 25.7 °F 20.1 °F 18.9 °F 75% 30.01 in 10.0 mi South 4.6 mph - N/A   Clear
4:54 AM 27.0 °F 18.7 °F 19.4 °F 73% 30.01 in 10.0 mi SSW 8.1 mph - N/A   Clear
5:14 AM 27.3 °F 20.9 °F 19.4 °F 72% 30.00 in 10.0 mi SSW 5.8 mph - N/A   Clear
5:34 AM 27.5 °F 19.3 °F 19.4 °F 72% 30.00 in 10.0 mi SW 8.1 mph - N/A   Clear
5:54 AM 28.0 °F 20.0 °F 19.4 °F 70% 30.01 in 10.0 mi SW 8.1 mph - N/A   Clear
6:14 AM 28.0 °F 18.1 °F 19.4 °F 70% 30.00 in 10.0 mi SW 11.5 mph 16.1 mph N/A   Clear
6:34 AM 28.4 °F 20.4 °F 20.1 °F 71% 29.99 in 10.0 mi SW 8.1 mph 18.4 mph N/A   Clear
6:54 AM 28.2 °F 19.5 °F 19.9 °F 71% 29.98 in 10.0 mi SW 9.2 mph - N/A   Clear
7:14 AM 28.4 °F 20.4 °F 20.3 °F 72% 29.98 in 10.0 mi SW 8.1 mph - N/A   Clear
7:34 AM 28.4 °F 19.7 °F 20.5 °F 72% 29.98 in 10.0 mi SW 9.2 mph - N/A   Clear
7:54 AM 28.4 °F 21.2 °F 21.0 °F 74% 29.97 in 10.0 mi SSW 6.9 mph - N/A   Clear
8:15 AM 28.9 °F 21.1 °F 21.2 °F 73% 29.96 in 10.0 mi SW 8.1 mph - N/A   Clear
8:34 AM 29.3 °F 20.8 °F 21.6 °F 73% 29.96 in 10.0 mi SW 9.2 mph 16.1 mph N/A   Clear
8:54 AM 30.0 °F 21.7 °F 22.1 °F 72% 29.96 in 10.0 mi SW 9.2 mph - N/A   Clear
9:15 AM 30.2 °F 22.6 °F 22.1 °F 72% 29.96 in 10.0 mi SW 8.1 mph 16.1 mph N/A   Clear
9:34 AM 30.4 °F 23.6 °F 22.5 °F 72% 29.95 in 10.0 mi SSW 6.9 mph 16.1 mph N/A   Clear
9:54 AM 31.1 °F 24.5 °F 23.0 °F 72% 29.96 in 10.0 mi SW 6.9 mph 21.9 mph N/A   Scattered Clouds
10:15 AM 31.8 °F 24.6 °F 23.5 °F 71% 29.96 in 10.0 mi SW 8.1 mph 16.1 mph N/A   Mostly Cloudy
10:34 AM 32.0 °F 24.2 °F 23.5 °F 71% 29.96 in 10.0 mi SW 9.2 mph - N/A   Overcast
10:54 AM 32.0 °F 23.6 °F 23.9 °F 72% 29.96 in 10.0 mi WSW 10.4 mph 18.4 mph N/A   Overcast
11:15 AM 32.5 °F 23.7 °F 24.4 °F 72% 29.96 in 10.0 mi SW 11.5 mph 17.3 mph N/A   Overcast
11:34 AM 32.9 °F 24.1 °F 24.6 °F 72% 29.95 in 10.0 mi SW 11.5 mph 20.7 mph N/A   Overcast
11:54 AM 33.3 °F 26.4 °F 25.0 °F 72% 29.94 in 10.0 mi SW 8.1 mph - N/A   Overcast
12:15 PM 33.8 °F 26.4 °F 25.3 °F 71% 29.93 in 10.0 mi WSW 9.2 mph 17.3 mph N/A   Overcast
12:34 PM 34.0 °F 27.2 °F 25.5 °F 71% 29.92 in 10.0 mi SW 8.1 mph 18.4 mph N/A   Overcast
12:54 PM 34.2 °F 26.8 °F 25.9 °F 72% 29.91 in 10.0 mi WSW 9.2 mph - N/A   Overcast
1:15 PM 34.3 °F 27.0 °F 26.2 °F 72% 29.90 in 10.0 mi SW 9.2 mph - N/A   Overcast
1:34 PM 34.7 °F 27.5 °F 26.6 °F 72% 29.89 in 10.0 mi SW 9.2 mph - N/A   Overcast
1:54 PM 34.7 °F 28.1 °F 26.6 °F 72% 29.90 in 10.0 mi SW 8.1 mph - N/A   Overcast
2:14 PM 34.7 °F 28.8 °F 26.8 °F 73% 29.90 in 10.0 mi SW 6.9 mph - N/A   Overcast
2:34 PM 34.7 °F 28.8 °F 27.0 °F 73% 29.90 in 10.0 mi SW 6.9 mph - N/A   Overcast
2:55 PM 34.3 °F 27.0 °F 27.3 °F 76% 29.90 in 10.0 mi SW 9.2 mph - N/A   Overcast
3:14 PM 34.5 °F 26.7 °F 27.3 °F 75% 29.91 in 10.0 mi WSW 10.4 mph 18.4 mph N/A   Overcast
3:35 PM 34.7 °F 27.5 °F 27.5 °F 75% 29.92 in 10.0 mi WSW 9.2 mph - N/A   Overcast
3:55 PM 34.3 °F 28.4 °F 27.9 °F 77% 29.92 in 10.0 mi WSW 6.9 mph - N/A   Overcast
4:14 PM 34.5 °F 29.4 °F 27.9 °F 77% 29.92 in 10.0 mi WSW 5.8 mph - N/A   Overcast
4:35 PM 34.7 °F 27.5 °F 27.9 °F 76% 29.92 in 10.0 mi West 9.2 mph 17.3 mph N/A   Overcast
4:55 PM 34.3 °F 26.5 °F 27.3 °F 76% 29.92 in 10.0 mi West 10.4 mph 16.1 mph N/A   Overcast
5:14 PM 34.2 °F 26.2 °F 27.1 °F 75% 29.92 in 10.0 mi West 10.4 mph 20.7 mph N/A   Overcast
5:35 PM 33.3 °F 24.6 °F 27.5 °F 79% 29.93 in 10.0 mi WNW 11.5 mph 18.4 mph N/A   Overcast
5:55 PM 32.2 °F 23.8 °F 27.3 °F 82% 29.94 in 10.0 mi WNW 10.4 mph - N/A   Overcast
6:14 PM 32.0 °F 22.5 °F 27.1 °F 82% 29.95 in 7.0 mi WNW 12.7 mph - N/A   Overcast
6:35 PM 31.8 °F 21.4 °F 27.1 °F 83% 29.95 in 7.0 mi WNW 15.0 mph 18.4 mph N/A   Overcast
6:59 PM 30.9 °F 21.2 °F 26.6 °F 84% 29.96 in 5.0 mi WNW 12.7 mph - N/A   Overcast
7:35 PM 30.4 °F 20.5 °F 25.7 °F 83% 29.97 in 7.0 mi NW 12.7 mph 17.3 mph N/A   Overcast
7:54 PM 30.2 °F 21.9 °F 25.3 °F 82% 29.98 in 10.0 mi WNW 9.2 mph 20.7 mph N/A   Overcast
8:15 PM 30.2 °F 21.3 °F 24.6 °F 80% 29.98 in 10.0 mi West 10.4 mph - N/A   Overcast
8:35 PM 29.8 °F 19.8 °F 23.0 °F 76% 29.98 in 10.0 mi WNW 12.7 mph - N/A   Overcast
8:54 PM 29.3 °F 20.2 °F 22.8 °F 77% 30.00 in 10.0 mi West 10.4 mph - N/A   Overcast
9:15 PM 29.3 °F 19.6 °F 20.8 °F 71% 30.00 in 10.0 mi WNW 11.5 mph - N/A   Overcast
9:35 PM 28.6 °F 19.3 °F 20.3 °F 71% 30.00 in 10.0 mi WNW 10.4 mph - N/A   Overcast
10:15 PM 28.4 °F 21.2 °F 19.6 °F 70% 29.99 in 10.0 mi WNW 6.9 mph - N/A   Overcast
10:35 PM 27.9 °F 20.6 °F 19.2 °F 70% 30.00 in 10.0 mi West 6.9 mph - N/A   Overcast
11:15 PM 28.0 °F 19.3 °F 18.5 °F 67% 30.01 in 10.0 mi West 9.2 mph - N/A   Overcast
11:35 PM 27.9 °F 19.8 °F 19.4 °F 71% 30.02 in 10.0 mi West 8.1 mph - N/A   Overcast